COSMOS 1961 1 19344U 88066A 21060.83428740 -.00000062 00000-0 00000-0 0 9993 2 19344 13.8297 344.3880 0007466 65.1891 120.5192 1.00274086119623 SL-12 R/B(2) 1 19347U 88066D 21060.75555046 -.00000097 00000-0 00000-0 0 9995 2 19347 14.4265 346.1982 0035423 90.7593 99.4403 0.98658053116888